FW0386 Weather Reports


time (UTC)temp
C
wind
direction
speed
KPH
gust
KPH
rain 1hr
cm
rain 24hr
cm
rain mn
cm
humidity
%
barometer
mb
20260506121508 21 110 6.4 20.9 0.00 0.00 0.00 51 1006.0
20260506120041 21 64 6.4 19.3 0.00 0.00 0.00 52 1006.1
20260506114508 21 207 3.2 16.1 0.00 0.00 0.00 51 1006.3
20260506113024 21 208 6.4 24.1 0.00 0.00 0.00 52 1006.3
20260506111546 21 103 8.0 19.3 0.00 0.00 0.00 52 1006.2
20260506110002 20 115 8.0 16.1 0.00 0.00 0.00 53 1006.5
20260506104520 21 82 6.4 14.5 0.00 0.00 0.00 55 1006.5
20260506103032 20 113 3.2 9.7 0.00 0.00 0.00 55 1006.7
20260506101532 20 194 4.8 16.1 0.00 0.00 0.00 55 1007.0
20260506100038 20 240 4.8 12.9 0.00 0.00 0.00 57 1007.0
20260506094552 20 101 8.0 16.1 0.00 0.00 0.00 59 1007.1
20260506093106 20 96 4.8 14.5 0.00 0.00 0.00 60 1007.2
20260506091522 19 203 6.4 14.5 0.00 0.00 0.00 61 1007.3
20260506090042 19 223 8.0 14.5 0.00 0.00 0.00 62 1007.1
20260506084531 18 188 3.2 11.3 0.00 0.00 0.00 64 1007.2
20260506083044 18 103 0.0 9.7 0.00 0.00 0.00 65 1007.2
20260506081540 18 147 1.6 8.0 0.00 0.00 0.00 67 1007.4
20260506073048 17 233 3.2 12.9 0.00 0.00 0.00 68 1007.6
20260506071612 17 247 4.8 8.0 0.00 0.00 0.00 70 1007.6
20260506070104 17 232 1.6 8.0 0.00 0.00 0.00 70 1007.7
20260506061545 16 283 0.0 4.8 0.00 0.00 0.00 73 1007.6
20260506044510 10 227 0.0 3.2 0.00 0.00 0.00 93 1007.5
20260506043007 9 278 0.0 1.6 0.00 0.00 0.00 93 1007.2
20260506041531 9 278 0.0 0.0 0.00 0.00 0.00 93 1007.2
20260506040031 8 278 0.0 0.0 0.00 0.00 0.00 93 1007.0
20260506034504 9 278 0.0 0.0 0.00 0.00 0.00 92 1006.9
20260506033006 9 278 0.0 1.6 0.00 0.00 0.00 92 1006.8
20260506031527 9 278 0.0 0.0 0.00 0.00 0.00 91 1006.8
20260506030045 9 278 0.0 0.0 0.00 0.00 0.00 90 1006.9
20260506024548 10 278 0.0 0.0 0.00 0.00 0.00 90 1006.9
20260506023004 10 278 0.0 0.0 0.00 0.00 0.00 89 1006.8
20260506021517 11 278 0.0 0.0 0.00 0.00 0.00 88 1006.7
20260506020038 12 278 0.0 0.0 0.00 0.00 0.00 87 1006.8
20260506014549 12 278 0.0 0.0 0.00 0.00 0.00 85 1006.7
20260506013059 13 278 0.0 3.2 0.00 0.00 0.00 84 1006.7
20260506011503 13 274 1.6 9.7 0.00 0.00 0.00 83 1006.5
20260506010026 14 277 1.6 11.3 0.00 0.00 0.00 82 1006.3
20260506004535 14 290 1.6 6.4 0.00 0.00 0.00 81 1006.2
20260506003040 15 285 1.6 6.4 0.00 0.00 0.00 80 1006.0
20260506001619 15 310 0.0 4.8 0.00 0.00 0.00 79 1006.2
20260506000017 15 19 0.0 4.8 0.00 0.00 0.00 77 1006.0
20260505234523 15 37 0.0 8.0 0.00 0.00 0.00 76 1006.0
20260505233037 15 284 0.0 12.9 0.00 0.00 0.00 75 1005.8
20260505231548 15 311 1.6 12.9 0.00 0.00 0.00 74 1005.6
20260505230116 15 285 6.4 16.1 0.00 0.00 0.00 74 1005.6
20260505224554 14 231 0.0 1.6 0.00 0.00 0.00 73 1005.7
20260505223039 14 158 0.0 0.0 0.00 0.00 0.00 72 1005.6
20260505221555 14 226 0.0 1.6 0.00 0.00 0.00 72 1005.5
20260505220100 14 104 0.0 1.6 0.00 0.00 0.00 71 1005.5
20260505214531 14 196 0.0 3.2 0.00 0.00 0.00 71 1005.4
20260505213049 15 113 0.0 3.2 0.00 0.00 0.00 70 1005.2
20260505211553 15 122 0.0 4.8 0.00 0.00 0.00 70 1005.0
20260505210053 15 91 1.6 4.8 0.00 0.00 0.00 69 1005.0
20260505204606 15 86 1.6 4.8 0.00 0.00 0.00 69 1005.1
20260505203058 15 99 0.0 3.2 0.00 0.00 0.00 68 1004.9
20260505201621 15 94 0.0 3.2 0.00 0.00 0.00 67 1005.1
20260505200057 15 111 1.6 4.8 0.00 0.00 0.00 66 1005.0
20260505194519 16 119 0.0 4.8 0.00 0.00 0.00 64 1004.8
20260505193045 16 89 1.6 9.7 0.00 0.00 0.00 63 1004.6
20260505191558 17 113 1.6 11.3 0.00 0.00 0.00 61 1004.7
20260505190118 17 138 3.2 12.9 0.00 0.00 0.00 59 1004.6
20260505183047 18 70 4.8 14.5 0.00 0.00 0.00 58 1004.5
20260505181551 19 85 4.8 11.3 0.00 0.00 0.00 56 1004.3
20260505174525 21 106 4.8 12.9 0.00 0.00 0.00 51 1004.1
20260505173026 21 176 4.8 14.5 0.00 0.00 0.00 49 1004.0
20260505171539 21 140 3.2 9.7 0.00 0.00 0.00 46 1003.9
20260505170058 21 89 1.6 8.0 0.00 0.00 0.00 43 1004.0
20260505164556 22 114 0.0 4.8 0.00 0.00 0.00 42 1004.0
20260505163021 22 70 3.2 12.9 0.00 0.00 0.00 39 1004.2
20260505161513 23 99 3.2 11.3 0.00 0.00 0.00 41 1004.3
20260505153015 23 107 6.4 12.9 0.00 0.00 0.00 42 1004.6
20260505151525 23 106 6.4 17.7 0.00 0.00 0.00 42 1004.8
20260505124532 23 141 4.8 16.1 0.00 0.00 0.00 47 1006.7
20260505123108 23 197 4.8 17.7 0.00 0.00 0.00 50 1006.9